SCP
0 0 0 0 0 0 0 0 0 0 0 0 0 0 0 0 0 0 0 0 0 0 0 0 0 0 0 0 0 0 0 0 0 0 0 0 0 0 0 0 0 0 0
0 0 0 0 0 0 0 0 0 0 0 0 0 0 0 0 0 0 0 0 0 0 0 0 0 0 0 0 0 0 0 0 0 0 0 0 0 0 0 0 0 0 0
0 0 0 0 0 0 0 0 0 0 0 0 0 0 0 0 0 0 0 0 0 0 0 0 0 0 0 0 0 0 0 0 0 0 0 0 0 0 0 0 0 0 0
0 0 0 0 0 0 0 0 0 0 0 0 0 0 0 0 0 0 0 0 0 0 0 0 0 0 0 0 0 0 0 0 0 0 0 0 0 0 0 0 0 0 0
0 0 0 0 0 0 0 0 0 0 0 0 0 0 0 0 0 0 0 0 0 0 0 0 0 0 0 0 0 0 0 0 0 0 0 0 0 0 0 0 0 0 0
0 0 0 0 0 0 0 0 0 0 0 0 0 0 0 0 0 0 0 0 0 0 0 0 0 0 0 0 0 0 0 0 0 0 0 0 0 0 0 0 0 0 0
0 0 0 0 0 0 0 0 0 0 0 0 0 0 0 0 0 0 0 0 0 0 0 0 0 0 0 0 0 0 0 0 0 0 0 0 0 0 0 0 0 0 0
0 0 0 0 0 0 0 0 0 0 0 0 0 0 0 0 0 0 0 0 0 0 0 0 0 0 0 0 0 0 0 0 0 0 0 0 0 0 0 0 0 0 0
0 0 0 0 0 0 0 0 0 0 0 0 0 0 0 0 0 0 0 0 0 0 0 0 0 0 0 0 0 0 0 0 0 0 0 0 0 0 0 0 0 0 0
0 0 0 0 0 0 0 0 0 0 0 0 0 0 0 0 0 0 0 0 0 0 0 0 0 0 0 0 0 0 0 0 0 0 0 0 0 0 0 0 0 0 0
0 0 0 0 0 0 0 0 0 0 0 0 0 0 0 0 0 0 0 0 0 0 0 0 0 0 0 0 0 0 0 0 0 0 0 0 0 0 0 0 0 0 0
0 0 0 0 0 0 0 0 0 0 0 0 0 0 0 0 0 0 0 0 0 0 0 0 0 0 0 0 0 0 0 0 0 0 0 0 0 0 0 0 0 0 0
0 0 0 0 0 0 0 0 0 0 0 0 0 0 0 0 0 0 0 0 0 0 0 0 0 0 0 0 0 0 0 0 0 0 0 0 0 0 0 0 0 0 0
0 0 0 0 0 0 0 0 0 0 0 0 0 0 0 0 0 0 0 0 0 0 0 0 0 0 0 0 0 0 0 0 0 0 0 0 0 0 0 0 0 0 0
0 0 0 0 0 0 0 0 0 0 0 0 0 0 0 0 0 0 0 0 0 0 0 0 0 0 0 0 0 0 0 0 0 0 0 0 0 0 0 0 0 0 0
0 0 0 0 0 0 0 0 0 0 0 0 0 0 0 0 0 0 0 0 0 0 0 0 0 0 0 0 0 0 0 0 0 0 0 0 0 0 0 0 0 0 0
0 0 0 0 0 0 0 0 0 0 0 0 0 0 0 0 0 0 0 0 0 0 0 0 0 0 0 0 0 0 0 0 0 0 0 0 0 0 0 0 0 0 0
0 0 0 0 0 0 0 0 0 0 0 0 0 0 0 0 0 0 0 0 0 0 0 0 0 0 0 0 0 0 0 0 0 0 0 0 0 0 0 0 0 0 0
0 0 0 0 0 0 0 0 0 0 0 0 0 0 0 0 0 0 0 0 0 0 0 0 0 0 0 0 0 0 0 0 0 0 0 0 0 0 0 0 0 0 0
0 0 0 0 0 0 0 0 0 0 0 0 0 0 0 0 0 0 0 0 0 0 0 0 0 0 0 0 0 0 0 0 0 0 0 0 0 0 0 0 0 0 0
0 0 0 0 0 0 0 0 0 0 0 0 0 0 0 0 0 0 0 0 0 0 0 0 0 0 0 0 0 0 0 0 0 0 0 0 0 0 0 0 0 0 0
0 0 0 0 0 0 0 0 0 0 0 0 0 0 0 0 0 0 0 0 0 0 0 0 0 0 0 0 0 0 0 0 0 0 0 0 0 0 0 0 0 0 0
0 0 0 0 0 0 0 0 0 0 0 0 0 0 0 0 0 0 0 0 0 0 0 0 0 0 0 0 0 0 0 0 0 0 0 0 0 0 0 0 0 0 0
0 0 0 0 0 0 0 0 0 0 0 0 0 0 0 0 0 0 0 0 0 0 0 0 0 0 0 0 0 0 0 0 0 0 0 0 0 0 0 0 0 0 0
0 0 0 0 0 0 0 0 0 0 0 0 0 0 0 0 0 0 0 0 0 0 0 0 0 0 0 0 0 0 0 0 0 0 0 0 0 0 0 0 0 0 0
0 0 0 0 0 0 0 0 0 0 0 0 0 0 0 0 0 0 0 0 0 0 0 0 0 0 0 0 0 0 0 0 0 0 0 0 0 0 0 0 0 0 0
Wind_Speed
17 16 17 17 17 18 19 20 20 19 16 13 13 12 12 11 10 10 12 13 13 13 11 8 8 8 7 7 7 5 5 3 2 2 2 3 3 3 3 3 3 3 3
16 15 15 16 18 20 20 21 21 20 19 15 14 12 12 10 10 9 11 13 14 13 11 11 9 9 7 8 8 7 4 3 4 3 3 3 4 4 4 3 4 4 3
19 18 17 17 18 19 21 19 22 22 21 19 13 10 9 8 9 11 11 13 14 14 13 13 11 10 9 8 9 8 8 5 4 4 3 3 2 1 4 5 5 5 4
18 17 16 17 18 19 18 20 21 21 21 20 16 17 14 13 15 12 11 13 14 14 14 13 12 10 9 9 9 9 7 6 5 4 4 4 3 3 2 4 5 5 6
18 17 16 16 16 16 16 17 19 20 21 20 20 19 16 14 11 12 13 13 13 14 13 13 12 11 9 10 9 9 9 7 6 5 4 4 4 5 5 5 4 4 5
16 15 13 12 12 13 14 15 18 19 20 21 20 20 20 17 14 15 13 12 10 11 14 13 12 11 10 10 10 9 10 8 8 6 5 4 4 5 5 6 6 5 4
14 14 14 13 13 13 14 15 18 19 20 21 20 20 20 18 17 15 14 13 10 10 13 13 12 11 10 10 9 9 9 9 9 7 6 5 5 4 4 5 6 6 5
13 13 13 12 12 13 14 16 17 18 19 20 19 19 18 13 12 14 12 12 10 11 13 13 12 12 11 10 9 8 8 7 8 8 7 5 5 4 5 4 5 6 6
12 12 11 11 12 13 14 15 17 17 18 18 18 17 17 15 13 13 13 10 10 9 12 12 12 11 11 10 10 7 8 8 8 7 7 5 4 4 4 4 4 4 6
11 11 10 10 10 10 11 13 14 15 16 16 15 12 15 15 13 12 13 12 11 10 11 12 11 11 10 10 9 7 7 8 7 5 7 6 4 4 4 4 4 5 6
12 10 9 9 9 9 10 12 12 13 13 14 14 14 13 13 13 11 12 11 11 11 11 11 11 10 10 9 9 8 8 8 7 6 7 7 6 4 4 4 5 5 6
9 9 9 9 10 10 11 11 11 12 12 13 13 13 12 12 12 12 11 11 10 10 10 10 10 9 9 9 9 9 8 8 8 7 7 6 4 5 4 4 6 6 6
9 9 9 9 10 10 10 11 11 11 11 12 12 12 12 12 12 11 10 10 10 9 9 9 9 9 9 8 8 8 8 7 7 6 6 6 5 6 5 5 5 5 5
9 9 9 9 10 10 10 11 11 11 11 12 12 12 12 12 11 10 10 9 9 9 9 8 8 8 7 7 7 7 6 6 5 5 5 5 6 6 5 5 6 5 5
9 10 10 10 10 10 10 10 11 11 11 12 12 11 11 10 10 10 9 9 8 8 8 8 7 7 6 6 7 6 6 5 5 4 4 4 4 4 4 4 4 4 4
10 10 10 11 11 12 12 11 12 12 12 12 11 11 11 10 10 10 9 9 9 8 8 8 8 7 5 7 9 7 6 5 5 4 3 3 3 4 6 7 6 6 5
10 11 11 11 11 12 12 13 13 12 12 12 11 11 11 11 10 10 10 10 9 9 8 8 8 7 6 9 9 8 5 5 4 3 3 2 2 3 3 5 6 7 8
8 9 10 10 10 10 11 12 12 13 12 12 12 12 12 11 11 10 10 10 9 8 8 8 7 6 6 8 9 8 5 4 3 2 2 2 1 1 2 3 4 5 5
8 9 9 9 10 11 12 13 13 13 13 13 13 12 12 12 12 11 11 9 9 8 7 7 7 7 7 8 8 7 4 3 3 2 1 0 1 1 3 3 4 5 5
7 7 7 9 10 12 13 14 14 14 14 14 13 12 12 13 12 12 11 9 9 8 8 7 6 6 6 8 8 7 3 3 3 2 1 0 1 2 2 3 4 5 5
8 7 8 9 10 12 14 15 14 14 13 13 13 12 12 12 12 11 10 10 9 9 8 8 6 6 6 8 8 6 3 3 2 1 1 0 1 2 3 4 4 5 6
8 8 8 8 9 13 15 15 14 13 13 14 13 13 12 11 10 12 11 10 10 10 9 8 7 5 5 6 7 7 4 3 2 1 0 1 1 2 3 3 5 7 6
8 8 9 9 10 12 14 15 14 15 15 15 14 13 13 11 11 11 11 10 9 7 7 6 6 5 4 5 7 6 5 4 2 2 2 2 1 2 2 3 5 5 3
8 8 9 10 10 11 12 13 15 16 16 16 15 13 13 11 10 8 8 8 7 7 7 6 6 5 4 4 4 4 4 4 3 2 3 2 1 1 2 3 3 3 3
7 9 10 11 11 12 12 14 16 17 17 16 14 13 11 11 10 8 6 6 6 6 7 6 6 6 5 5 5 4 3 2 2 2 1 0 0 1 2 2 3 3 3
8 9 10 11 12 13 13 15 16 17 18 15 14 11 10 10 9 10 9 10 9 11 9 8 7 5 7 9 8 6 6 5 5 2 1 0 1 2 2 3 3 3 3
Wind_Direction
226 219 214 207 202 199 197 195 194 193 189 188 191 193 195 195 198 201 201 199 199 197 200 199 195 194 200 203 204 200 198 203 204 226 233 212 211 220 209 216 217 203 210
223 215 211 205 202 200 199 198 196 194 192 193 194 196 195 196 197 198 204 203 202 199 199 202 197 196 201 202 200 200 204 194 206 237 254 241 202 197 210 219 227 228 220
227 217 209 205 203 202 200 199 198 196 195 193 190 187 188 190 195 199 200 204 203 201 201 204 201 199 200 201 201 200 206 205 200 229 248 259 265 216 194 216 225 229 236
228 225 215 207 204 204 201 201 198 197 194 191 190 188 190 194 198 196 197 199 203 203 203 203 202 200 202 204 202 203 208 209 206 201 234 260 290 264 255 209 221 233 246
224 223 218 212 207 202 198 199 197 196 193 192 193 194 199 201 196 194 196 197 199 203 202 201 200 201 203 206 201 199 206 209 212 201 197 214 231 247 257 266 247 235 237
219 219 215 207 203 197 194 195 195 195 193 193 195 198 200 199 193 192 192 193 195 199 201 201 201 201 202 203 201 199 204 209 212 209 204 204 211 221 233 257 266 266 255
211 208 205 200 195 190 190 191 192 193 192 193 196 199 202 200 198 193 194 191 192 195 199 198 201 201 202 201 197 198 203 208 209 211 215 221 230 233 237 255 269 274 273
208 205 202 197 193 189 187 187 190 191 190 192 196 199 200 199 200 198 194 194 196 198 196 197 201 201 199 196 195 198 200 203 210 215 216 219 225 222 227 243 263 272 268
205 201 197 195 192 188 187 186 186 187 189 191 193 196 196 197 198 196 196 196 196 194 194 194 198 198 196 194 191 199 198 200 208 210 211 215 218 220 225 232 237 252 275
202 197 194 193 191 186 182 183 184 184 185 187 189 191 193 195 195 192 194 194 194 190 190 191 193 193 191 190 191 197 199 200 203 202 208 214 214 214 215 221 233 241 257
195 191 186 182 176 173 174 176 178 178 180 183 185 187 189 190 190 191 193 193 191 187 187 187 186 186 187 187 189 195 193 201 203 201 210 214 211 213 215 219 227 235 242
186 179 173 169 169 169 171 171 174 175 176 177 179 181 181 183 186 188 189 188 186 182 182 181 181 182 184 187 192 195 194 200 204 204 208 211 204 219 222 223 232 239 242
171 167 166 170 170 168 168 168 170 170 170 171 173 173 176 178 181 182 181 180 179 175 176 177 179 180 182 186 194 195 194 198 201 203 205 206 207 221 225 231 240 247 252
168 168 169 169 167 166 166 166 165 164 164 166 169 172 174 175 175 174 173 173 173 172 172 173 175 174 175 180 184 185 185 191 194 198 206 208 213 227 234 237 246 253 258
173 174 172 169 167 165 165 165 163 163 163 164 166 168 166 165 163 163 163 163 164 165 164 163 164 162 163 172 172 173 175 180 183 191 206 212 222 238 242 247 253 256 262
181 179 175 173 173 171 168 166 165 164 164 164 163 159 157 157 157 157 155 155 155 155 154 158 159 159 161 168 172 172 175 179 185 191 203 206 216 233 242 251 259 268 271
186 187 187 185 179 175 171 169 165 161 163 162 159 159 156 155 155 152 152 154 154 152 152 154 156 157 151 159 167 171 170 174 179 182 186 192 219 235 254 252 257 261 266
194 194 193 187 179 170 166 161 159 161 162 161 161 160 158 155 153 154 154 153 152 151 149 150 151 144 141 156 161 162 165 158 157 163 178 199 217 242 269 266 272 277 277
206 200 194 183 172 168 162 157 160 162 163 165 164 163 160 156 155 156 154 150 147 143 140 142 144 142 137 147 151 155 151 147 143 133 138 205 244 291 294 286 286 290 293
217 199 183 174 171 168 161 161 164 167 170 168 163 160 159 157 156 153 147 143 140 135 131 128 133 134 132 138 145 151 146 148 141 136 136 119 318 316 302 294 294 296 302
219 193 178 178 175 166 165 167 168 173 165 156 153 153 155 154 150 144 142 140 134 131 128 125 123 123 123 134 139 141 143 147 148 147 153 91 336 315 306 303 304 311 310
211 191 183 179 170 168 169 169 171 160 150 148 148 148 148 143 143 140 138 139 137 134 132 129 123 117 120 125 136 136 121 127 141 143 135 61 12 323 308 307 324 321 313
209 192 184 173 170 174 174 168 159 150 148 146 145 142 140 140 143 143 141 140 141 139 140 138 136 130 128 127 132 136 128 129 120 104 82 63 26 311 300 324 331 325 320
210 187 177 174 172 173 174 160 150 151 148 145 142 141 139 137 136 134 139 142 146 145 144 145 143 139 140 139 144 146 137 131 116 108 102 91 64 354 338 329 327 328 326
201 187 183 178 170 165 160 153 153 151 146 142 140 140 137 136 132 125 123 134 132 144 147 147 147 149 150 147 144 142 141 141 124 114 99 35 329 323 329 325 325 322 320
192 185 180 169 162 157 155 156 156 152 146 143 143 141 139 136 133 126 107 82 101 106 106 115 125 122 127 137 134 125 120 119 130 133 167 249 301 315 319 318 318 317 318